| time (UTC) | temp F | wind direction | speed MPH | gust MPH | rain 1hr in | rain 24hr in | rain mn in | humidity % | barometer mb |
| 20260506024010 | 52 | 66 | 3.0 | 8.0 | 0.06 | 0.47 | 0.47 | 91 | 1004.7 |
| 20260506023540 | 52 | 60 | 2.0 | 7.0 | 0.07 | 0.47 | 0.47 | 90 | 1004.7 |
| 20260506023103 | 52 | 46 | 2.0 | 9.0 | 0.08 | 0.47 | 0.47 | 90 | 1004.9 |
| 20260506022514 | 52 | 75 | 4.0 | 10.0 | 0.10 | 0.47 | 0.47 | 90 | 1004.8 |
| 20260506022031 | 53 | 38 | 4.0 | 10.0 | 0.12 | 0.47 | 0.47 | 90 | 1004.9 |
| 20260506021551 | 53 | 49 | 1.0 | 9.0 | 0.13 | 0.47 | 0.47 | 90 | 1004.8 |
| 20260506021006 | 53 | 81 | 4.0 | 9.0 | 0.13 | 0.47 | 0.47 | 90 | 1004.7 |
| 20260506020523 | 53 | 49 | 2.0 | 9.0 | 0.13 | 0.47 | 0.47 | 90 | 1004.7 |
| 20260506020048 | 53 | 76 | 3.0 | 13.0 | 0.13 | 0.47 | 0.47 | 90 | 1004.7 |
| 20260506015602 | 53 | 70 | 3.0 | 13.0 | 0.13 | 0.47 | 0.47 | 90 | 1004.6 |
| 20260506015029 | 53 | 36 | 5.0 | 13.0 | 0.13 | 0.45 | 0.45 | 90 | 1004.5 |
| 20260506014557 | 53 | 40 | 6.0 | 13.0 | 0.13 | 0.44 | 0.44 | 90 | 1004.4 |
| 20260506014004 | 54 | 80 | 6.0 | 12.0 | 0.13 | 0.41 | 0.41 | 90 | 1004.5 |
| 20260506013522 | 54 | 15 | 5.0 | 10.0 | 0.15 | 0.40 | 0.40 | 90 | 1005.1 |
| 20260506013042 | 54 | 355 | 4.0 | 10.0 | 0.17 | 0.39 | 0.39 | 90 | 1005.1 |
| 20260506012607 | 54 | 76 | 5.0 | 10.0 | 0.18 | 0.37 | 0.37 | 90 | 1005.3 |
| 20260506012028 | 54 | 5 | 1.0 | 4.0 | 0.20 | 0.35 | 0.35 | 90 | 1006.0 |
| 20260506011611 | 54 | 23 | 0.0 | 2.0 | 0.22 | 0.35 | 0.35 | 90 | 1006.0 |
| 20260506011002 | 54 | 346 | 0.0 | 3.0 | 0.24 | 0.35 | 0.35 | 90 | 1006.0 |
| 20260506010521 | 54 | 339 | 1.0 | 3.0 | 0.26 | 0.35 | 0.35 | 90 | 1006.0 |
| 20260506010041 | 54 | 9 | 1.0 | 3.0 | 0.26 | 0.35 | 0.35 | 90 | 1006.1 |
| 20260506005601 | 54 | 303 | 0.0 | 2.0 | 0.25 | 0.33 | 0.33 | 90 | 1006.2 |
| 20260506005025 | 54 | 297 | 0.0 | 3.0 | 0.24 | 0.31 | 0.31 | 90 | 1006.3 |
| 20260506004558 | 54 | 344 | 0.0 | 5.0 | 0.23 | 0.31 | 0.31 | 90 | 1006.3 |
| 20260506004010 | 54 | 236 | 0.0 | 5.0 | 0.20 | 0.27 | 0.27 | 90 | 1006.4 |
| 20260506003529 | 54 | 269 | 2.0 | 6.0 | 0.17 | 0.24 | 0.24 | 90 | 1006.5 |
| 20260506003039 | 54 | 249 | 1.0 | 7.0 | 0.15 | 0.22 | 0.22 | 90 | 1006.6 |
| 20260506002554 | 54 | 257 | 3.0 | 10.0 | 0.13 | 0.19 | 0.19 | 89 | 1006.6 |
| 20260506002019 | 54 | 292 | 4.0 | 10.0 | 0.08 | 0.14 | 0.14 | 89 | 1006.6 |
| 20260506001543 | 54 | 198 | 5.0 | 9.0 | 0.06 | 0.12 | 0.12 | 89 | 1006.8 |
| 20260506001058 | 54 | 186 | 5.0 | 7.0 | 0.06 | 0.11 | 0.11 | 89 | 1006.7 |
| 20260506000516 | 54 | 244 | 2.0 | 5.0 | 0.03 | 0.09 | 0.09 | 89 | 1006.6 |
| 20260506000109 | 54 | 201 | 0.0 | 5.0 | 0.02 | 0.08 | 0.08 | 88 | 1006.3 |
| 20260505235602 | 54 | 19 | 1.0 | 5.0 | 0.02 | 0.08 | 0.08 | 88 | 1006.3 |
| 20260505235027 | 54 | 43 | 2.0 | 6.0 | 0.03 | 0.08 | 0.08 | 88 | 1006.1 |
| 20260505234551 | 54 | 36 | 2.0 | 6.0 | 0.03 | 0.08 | 0.08 | 88 | 1006.1 |
| 20260505234011 | 54 | 22 | 0.0 | 5.0 | 0.02 | 0.07 | 0.07 | 89 | 1006.0 |
| 20260505233533 | 54 | 40 | 0.0 | 5.0 | 0.02 | 0.07 | 0.07 | 88 | 1006.0 |
| 20260505233052 | 54 | 360 | 0.0 | 5.0 | 0.02 | 0.07 | 0.07 | 88 | 1006.0 |
| 20260505232509 | 54 | 37 | 1.0 | 5.0 | 0.02 | 0.06 | 0.06 | 88 | 1006.1 |
| 20260505232031 | 55 | 30 | 1.0 | 5.0 | 0.02 | 0.06 | 0.06 | 88 | 1006.2 |
| 20260505231554 | 55 | 74 | 0.0 | 4.0 | 0.02 | 0.06 | 0.06 | 88 | 1006.1 |
| 20260505231005 | 55 | 34 | 0.0 | 4.0 | 0.02 | 0.06 | 0.06 | 88 | 1006.2 |
| 20260505230524 | 55 | 347 | 0.0 | 0.0 | 0.04 | 0.06 | 0.06 | 88 | 1006.4 |
| 20260505230100 | 54 | 347 | 0.0 | 4.0 | 0.06 | 0.06 | 0.06 | 87 | 1006.4 |
| 20260505225513 | 55 | 346 | 0.0 | 9.0 | 0.06 | 0.06 | 0.06 | 87 | 1006.3 |
| 20260505225028 | 55 | 30 | 1.0 | 9.0 | 0.05 | 0.05 | 0.05 | 87 | 1006.0 |
| 20260505224547 | 55 | 54 | 3.0 | 11.0 | 0.05 | 0.05 | 0.05 | 87 | 1005.9 |
| 20260505224004 | 55 | 74 | 6.0 | 12.0 | 0.05 | 0.05 | 0.05 | 87 | 1005.9 |
| 20260505223532 | 55 | 59 | 3.0 | 12.0 | 0.05 | 0.05 | 0.05 | 87 | 1005.7 |
| 20260505223050 | 55 | 54 | 5.0 | 12.0 | 0.05 | 0.05 | 0.05 | 86 | 1005.8 |
| 20260505222520 | 55 | 65 | 6.0 | 12.0 | 0.05 | 0.05 | 0.05 | 86 | 1005.9 |
| 20260505222035 | 56 | 61 | 3.0 | 9.0 | 0.04 | 0.04 | 0.04 | 86 | 1006.0 |
| 20260505221600 | 56 | 355 | 4.0 | 11.0 | 0.04 | 0.04 | 0.04 | 85 | 1006.0 |
| 20260505221011 | 56 | 80 | 4.0 | 12.0 | 0.04 | 0.04 | 0.04 | 84 | 1006.2 |
| 20260505220530 | 56 | 26 | 7.0 | 12.0 | 0.01 | 0.01 | 0.01 | 83 | 1006.2 |
| 20260505220049 | 57 | 65 | 4.0 | 8.0 | 0.00 | 0.00 | 0.00 | 82 | 1006.5 |
| 20260505215503 | 57 | 63 | 1.0 | 6.0 | 0.00 | 0.00 | 0.00 | 82 | 1006.7 |
| 20260505215022 | 57 | 74 | 4.0 | 6.0 | 0.00 | 0.00 | 0.00 | 81 | 1006.8 |
| 20260505214542 | 57 | 40 | 2.0 | 6.0 | 0.00 | 0.00 | 0.00 | 81 | 1006.8 |
| 20260505214104 | 57 | 61 | 3.0 | 8.0 | 0.00 | 0.00 | 0.00 | 81 | 1006.8 |
| 20260505213526 | 57 | 65 | 1.0 | 8.0 | 0.00 | 0.00 | 0.00 | 81 | 1007.0 |
| 20260505213046 | 57 | 52 | 2.0 | 6.0 | 0.00 | 0.00 | 0.00 | 81 | 1007.0 |
| 20260505212512 | 57 | 53 | 2.0 | 9.0 | 0.00 | 0.00 | 0.00 | 80 | 1007.1 |
| 20260505212031 | 57 | 5 | 3.0 | 9.0 | 0.00 | 0.00 | 0.00 | 80 | 1007.0 |
| 20260505211546 | 57 | 81 | 2.0 | 5.0 | 0.00 | 0.00 | 0.00 | 80 | 1007.0 |
| 20260505211003 | 57 | 24 | 1.0 | 9.0 | 0.00 | 0.00 | 0.00 | 80 | 1007.2 |
| 20260505210525 | 57 | 48 | 3.0 | 6.0 | 0.00 | 0.00 | 0.00 | 80 | 1007.1 |
| 20260505210040 | 57 | 37 | 1.0 | 10.0 | 0.00 | 0.00 | 0.00 | 80 | 1007.0 |
| 20260505205559 | 57 | 74 | 2.0 | 10.0 | 0.00 | 0.00 | 0.00 | 80 | 1007.0 |
| 20260505205026 | 57 | 40 | 3.0 | 9.0 | 0.00 | 0.00 | 0.00 | 80 | 1007.1 |
| 20260505204549 | 57 | 66 | 3.0 | 9.0 | 0.00 | 0.00 | 0.00 | 80 | 1007.2 |
| 20260505204101 | 57 | 48 | 2.0 | 9.0 | 0.00 | 0.00 | 0.00 | 80 | 1007.2 |
| 20260505203516 | 57 | 65 | 4.0 | 10.0 | 0.00 | 0.00 | 0.00 | 80 | 1007.3 |
| 20260505203054 | 57 | 64 | 3.0 | 9.0 | 0.00 | 0.00 | 0.00 | 79 | 1007.3 |
| 20260505202509 | 57 | 23 | 4.0 | 9.0 | 0.00 | 0.00 | 0.00 | 79 | 1007.3 |
| 20260505202039 | 58 | 62 | 3.0 | 8.0 | 0.00 | 0.00 | 0.00 | 79 | 1007.3 |
| 20260505201558 | 58 | 55 | 2.0 | 10.0 | 0.00 | 0.00 | 0.00 | 79 | 1007.3 |
| 20260505201007 | 58 | 82 | 5.0 | 10.0 | 0.00 | 0.00 | 0.00 | 79 | 1007.2 |
| 20260505200538 | 58 | 76 | 3.0 | 8.0 | 0.00 | 0.00 | 0.00 | 79 | 1007.2 |
| 20260505200054 | 58 | 59 | 3.0 | 9.0 | 0.00 | 0.00 | 0.00 | 78 | 1007.2 |
| 20260505195508 | 58 | 40 | 4.0 | 10.0 | 0.00 | 0.00 | 0.00 | 78 | 1007.1 |
| 20260505195026 | 58 | 67 | 3.0 | 13.0 | 0.00 | 0.00 | 0.00 | 78 | 1007.1 |
| 20260505194603 | 58 | 42 | 5.0 | 13.0 | 0.00 | 0.00 | 0.00 | 78 | 1007.1 |
| 20260505194011 | 58 | 22 | 3.0 | 10.0 | 0.00 | 0.00 | 0.00 | 78 | 1007.0 |
| 20260505193527 | 59 | 30 | 4.0 | 9.0 | 0.00 | 0.00 | 0.00 | 78 | 1007.0 |
| 20260505193039 | 59 | 50 | 5.0 | 9.0 | 0.00 | 0.00 | 0.00 | 78 | 1006.9 |
| 20260505192554 | 59 | 46 | 2.0 | 8.0 | 0.00 | 0.00 | 0.00 | 78 | 1007.0 |
| 20260505192017 | 59 | 20 | 2.0 | 9.0 | 0.00 | 0.00 | 0.00 | 78 | 1007.0 |
| 20260505191551 | 59 | 13 | 3.0 | 9.0 | 0.00 | 0.00 | 0.00 | 77 | 1007.0 |
| 20260505191055 | 59 | 40 | 3.0 | 8.0 | 0.00 | 0.00 | 0.00 | 77 | 1007.1 |
| 20260505190511 | 59 | 15 | 2.0 | 9.0 | 0.00 | 0.00 | 0.00 | 77 | 1007.1 |
| 20260505190041 | 59 | 44 | 2.0 | 10.0 | 0.00 | 0.00 | 0.00 | 77 | 1007.0 |
| 20260505185504 | 60 | 10 | 3.0 | 9.0 | 0.00 | 0.00 | 0.00 | 77 | 1007.1 |
| 20260505185025 | 60 | 40 | 2.0 | 10.0 | 0.00 | 0.00 | 0.00 | 76 | 1007.0 |
| 20260505184550 | 60 | 22 | 5.0 | 10.0 | 0.00 | 0.00 | 0.00 | 76 | 1007.1 |
| 20260505184004 | 60 | 9 | 4.0 | 9.0 | 0.00 | 0.00 | 0.00 | 76 | 1007.1 |
| 20260505183532 | 61 | 83 | 2.0 | 10.0 | 0.00 | 0.00 | 0.00 | 75 | 1007.1 |
| 20260505183054 | 61 | 351 | 4.0 | 10.0 | 0.00 | 0.00 | 0.00 | 75 | 1007.1 |
| 20260505182508 | 61 | 13 | 4.0 | 10.0 | 0.00 | 0.00 | 0.00 | 74 | 1007.1 |
| 20260505182017 | 61 | 43 | 1.0 | 8.0 | 0.00 | 0.00 | 0.00 | 74 | 1007.2 |
| 20260505181538 | 61 | 5 | 1.0 | 8.0 | 0.00 | 0.00 | 0.00 | 74 | 1007.2 |
| 20260505181058 | 61 | 15 | 2.0 | 9.0 | 0.00 | 0.00 | 0.00 | 73 | 1007.2 |
| 20260505180512 | 62 | 31 | 3.0 | 9.0 | 0.00 | 0.00 | 0.00 | 73 | 1007.2 |
| 20260505180048 | 62 | 15 | 1.0 | 9.0 | 0.00 | 0.00 | 0.00 | 73 | 1007.1 |
| 20260505175508 | 62 | 22 | 0.0 | 9.0 | 0.00 | 0.00 | 0.00 | 73 | 1007.1 |
| 20260505175039 | 62 | 20 | 3.0 | 8.0 | 0.00 | 0.00 | 0.00 | 73 | 1007.1 |
| 20260505174556 | 62 | 328 | 1.0 | 9.0 | 0.00 | 0.00 | 0.00 | 73 | 1007.1 |
| 20260505174011 | 63 | 355 | 4.0 | 9.0 | 0.00 | 0.00 | 0.00 | 72 | 1007.1 |
| 20260505173536 | 63 | 36 | 2.0 | 8.0 | 0.00 | 0.00 | 0.00 | 72 | 1007.1 |
| 20260505173112 | 63 | 36 | 3.0 | 10.0 | 0.00 | 0.00 | 0.00 | 71 | 1007.1 |
| 20260505172521 | 63 | 355 | 2.0 | 10.0 | 0.00 | 0.00 | 0.00 | 71 | 1007.1 |
| 20260505172032 | 63 | 11 | 5.0 | 10.0 | 0.00 | 0.00 | 0.00 | 70 | 1007.2 |
| 20260505171608 | 63 | 360 | 3.0 | 11.0 | 0.00 | 0.00 | 0.00 | 69 | 1007.2 |
| 20260505171008 | 64 | 360 | 4.0 | 10.0 | 0.00 | 0.00 | 0.00 | 70 | 1007.1 |
| 20260505170526 | 64 | 17 | 2.0 | 12.0 | 0.00 | 0.00 | 0.00 | 71 | 1007.2 |
| 20260505170046 | 64 | 337 | 3.0 | 12.0 | 0.00 | 0.00 | 0.00 | 70 | 1007.2 |
| 20260505165503 | 64 | 328 | 4.0 | 11.0 | 0.00 | 0.00 | 0.00 | 69 | 1007.2 |
| 20260505165027 | 65 | 355 | 4.0 | 11.0 | 0.00 | 0.00 | 0.00 | 69 | 1007.2 |
| 20260505164545 | 65 | 324 | 4.0 | 11.0 | 0.00 | 0.00 | 0.00 | 68 | 1007.1 |
| 20260505164002 | 65 | 27 | 1.0 | 11.0 | 0.00 | 0.00 | 0.00 | 67 | 1007.1 |
| 20260505163525 | 66 | 44 | 4.0 | 10.0 | 0.00 | 0.00 | 0.00 | 66 | 1007.1 |
| 20260505163045 | 66 | 22 | 3.0 | 10.0 | 0.00 | 0.00 | 0.00 | 65 | 1007.1 |
| 20260505162511 | 66 | 306 | 3.0 | 9.0 | 0.00 | 0.00 | 0.00 | 65 | 1007.1 |
| 20260505162029 | 66 | 344 | 4.0 | 9.0 | 0.00 | 0.00 | 0.00 | 65 | 1007.1 |
| 20260505161552 | 66 | 320 | 1.0 | 9.0 | 0.00 | 0.00 | 0.00 | 64 | 1007.3 |
| 20260505161013 | 66 | 336 | 3.0 | 13.0 | 0.00 | 0.00 | 0.00 | 63 | 1007.3 |
| 20260505160533 | 67 | 355 | 5.0 | 13.0 | 0.00 | 0.00 | 0.00 | 63 | 1007.3 |
| 20260505153056 | 68 | 344 | 4.0 | 14.0 | 0.00 | 0.00 | 0.00 | 62 | 1007.3 |
| 20260505152511 | 68 | 14 | 1.0 | 13.0 | 0.00 | 0.00 | 0.00 | 62 | 1007.4 |
| 20260505152042 | 68 | 355 | 6.0 | 13.0 | 0.00 | 0.00 | 0.00 | 61 | 1007.5 |
| 20260505151602 | 69 | 350 | 3.0 | 10.0 | 0.00 | 0.00 | 0.00 | 61 | 1007.4 |
| 20260505151027 | 70 | 10 | 4.0 | 8.0 | 0.00 | 0.00 | 0.00 | 61 | 1007.3 |
| 20260505150546 | 70 | 17 | 2.0 | 12.0 | 0.00 | 0.00 | 0.00 | 61 | 1007.3 |
| 20260505150120 | 69 | 309 | 5.0 | 12.0 | 0.00 | 0.00 | 0.00 | 61 | 1007.5 |
| 20260505140525 | 69 | 360 | 6.0 | 13.0 | 0.00 | 0.00 | 0.00 | 63 | 1007.7 |
| 20260505125026 | 69 | 37 | 4.0 | 9.0 | 0.00 | 0.00 | 0.00 | 62 | 1007.9 |
| 20260505124551 | 69 | 64 | 3.0 | 9.0 | 0.00 | 0.00 | 0.00 | 62 | 1008.0 |
| 20260505124104 | 69 | 317 | 2.0 | 8.0 | 0.00 | 0.00 | 0.00 | 62 | 1008.0 |
| 20260505123520 | 69 | 342 | 2.0 | 11.0 | 0.00 | 0.00 | 0.00 | 60 | 1008.0 |
| 20260505123050 | 69 | 44 | 4.0 | 11.0 | 0.00 | 0.00 | 0.00 | 61 | 1008.0 |
| 20260505122555 | 69 | 32 | 3.0 | 10.0 | 0.00 | 0.00 | 0.00 | 62 | 1008.1 |
| 20260505122014 | 69 | 5 | 1.0 | 9.0 | 0.00 | 0.00 | 0.00 | 62 | 1008.0 |
| 20260505121610 | 69 | 37 | 2.0 | 10.0 | 0.00 | 0.00 | 0.00 | 62 | 1008.1 |
| 20260505121058 | 70 | 19 | 4.0 | 10.0 | 0.00 | 0.00 | 0.00 | 62 | 1008.1 |
| 20260505120522 | 69 | 340 | 2.0 | 10.0 | 0.00 | 0.00 | 0.00 | 61 | 1008.2 |
| 20260505120041 | 69 | 12 | 5.0 | 9.0 | 0.00 | 0.00 | 0.00 | 62 | 1008.2 |
| 20260505115506 | 69 | 30 | 3.0 | 12.0 | 0.00 | 0.00 | 0.00 | 62 | 1008.1 |
| 20260505115026 | 69 | 355 | 3.0 | 12.0 | 0.00 | 0.00 | 0.00 | 63 | 1008.1 |
| 20260505114544 | 69 | 316 | 4.0 | 11.0 | 0.00 | 0.00 | 0.00 | 64 | 1008.1 |
| 20260505114106 | 68 | 355 | 3.0 | 13.0 | 0.00 | 0.00 | 0.00 | 64 | 1008.1 |
| 20260505113528 | 68 | 40 | 5.0 | 13.0 | 0.00 | 0.00 | 0.00 | 64 | 1008.2 |
| 20260505113054 | 68 | 360 | 5.0 | 13.0 | 0.00 | 0.00 | 0.00 | 63 | 1008.1 |
| 20260505112506 | 68 | 302 | 5.0 | 11.0 | 0.00 | 0.00 | 0.00 | 64 | 1008.1 |
| 20260505112025 | 69 | 341 | 5.0 | 14.0 | 0.00 | 0.00 | 0.00 | 63 | 1008.1 |
| 20260505111548 | 69 | 348 | 2.0 | 12.0 | 0.00 | 0.00 | 0.00 | 62 | 1008.2 |
| 20260505111103 | 69 | 351 | 6.0 | 12.0 | 0.00 | 0.00 | 0.00 | 61 | 1008.2 |
| 20260505110528 | 70 | 315 | 3.0 | 10.0 | 0.00 | 0.00 | 0.00 | 62 | 1008.2 |
| 20260505102030 | 69 | 348 | 5.0 | 11.0 | 0.00 | 0.00 | 0.00 | 60 | 1008.4 |
| 20260505101547 | 70 | 26 | 3.0 | 10.0 | 0.00 | 0.00 | 0.00 | 60 | 1008.5 |
| 20260505101004 | 70 | 355 | 3.0 | 10.0 | 0.00 | 0.00 | 0.00 | 61 | 1008.5 |
| 20260505100524 | 70 | 297 | 4.0 | 8.0 | 0.00 | 0.00 | 0.00 | 61 | 1008.6 |
| 20260505100101 | 70 | 19 | 3.0 | 9.0 | 0.00 | 0.00 | 0.00 | 62 | 1008.5 |
| 20260505095603 | 70 | 333 | 4.0 | 9.0 | 0.00 | 0.00 | 0.00 | 62 | 1008.4 |
| 20260505095025 | 70 | 48 | 2.0 | 8.0 | 0.00 | 0.00 | 0.00 | 61 | 1008.5 |
| 20260505094544 | 70 | 15 | 2.0 | 9.0 | 0.00 | 0.00 | 0.00 | 61 | 1008.5 |
| 20260505094009 | 70 | 53 | 4.0 | 9.0 | 0.00 | 0.00 | 0.00 | 61 | 1008.6 |
| 20260505093525 | 70 | 28 | 3.0 | 11.0 | 0.00 | 0.00 | 0.00 | 60 | 1008.7 |
| 20260505093045 | 70 | 9 | 2.0 | 11.0 | 0.00 | 0.00 | 0.00 | 60 | 1008.6 |
| 20260505092502 | 70 | 71 | 3.0 | 9.0 | 0.00 | 0.00 | 0.00 | 60 | 1008.6 |
| 20260505092022 | 69 | 273 | 2.0 | 8.0 | 0.00 | 0.00 | 0.00 | 61 | 1008.5 |
| 20260505091608 | 68 | 22 | 2.0 | 9.0 | 0.00 | 0.00 | 0.00 | 62 | 1008.5 |
| 20260505091003 | 68 | 325 | 3.0 | 9.0 | 0.00 | 0.00 | 0.00 | 64 | 1008.5 |
| 20260505090531 | 67 | 80 | 2.0 | 9.0 | 0.00 | 0.00 | 0.00 | 63 | 1008.5 |
| 20260505090059 | 66 | 72 | 2.0 | 9.0 | 0.00 | 0.00 | 0.00 | 64 | 1008.7 |
| 20260505085508 | 66 | 13 | 4.0 | 9.0 | 0.00 | 0.00 | 0.00 | 64 | 1008.7 |
| 20260505085036 | 66 | 10 | 4.0 | 8.0 | 0.00 | 0.00 | 0.00 | 66 | 1008.7 |
| 20260505084557 | 65 | 27 | 2.0 | 6.0 | 0.00 | 0.00 | 0.00 | 67 | 1008.8 |
| 20260505084022 | 65 | 53 | 1.0 | 6.0 | 0.00 | 0.00 | 0.00 | 67 | 1008.9 |
| 20260505083544 | 65 | 355 | 1.0 | 6.0 | 0.00 | 0.00 | 0.00 | 66 | 1009.0 |
| 20260505083008 | 65 | 337 | 1.0 | 5.0 | 0.00 | 0.00 | 0.00 | 66 | 1009.1 |
| 20260505082529 | 65 | 350 | 1.0 | 5.0 | 0.00 | 0.00 | 0.00 | 66 | 1009.2 |
| 20260505082055 | 65 | 25 | 0.0 | 4.0 | 0.00 | 0.00 | 0.00 | 65 | 1009.2 |
| 20260505081515 | 65 | 360 | 0.0 | 4.0 | 0.00 | 0.00 | 0.00 | 66 | 1009.3 |
| 20260505081040 | 65 | 336 | 0.0 | 4.0 | 0.00 | 0.00 | 0.00 | 66 | 1009.3 |
| 20260505080601 | 65 | 288 | 1.0 | 4.0 | 0.00 | 0.00 | 0.00 | 65 | 1009.3 |
| 20260505080011 | 65 | 5 | 1.0 | 7.0 | 0.00 | 0.00 | 0.00 | 66 | 1009.4 |
| 20260505075533 | 65 | 262 | 4.0 | 7.0 | 0.00 | 0.00 | 0.00 | 66 | 1009.4 |
| 20260505075003 | 65 | 309 | 1.0 | 4.0 | 0.00 | 0.00 | 0.00 | 66 | 1009.4 |
| 20260505074523 | 65 | 284 | 2.0 | 4.0 | 0.00 | 0.00 | 0.00 | 66 | 1009.4 |
| 20260505074045 | 64 | 23 | 0.0 | 4.0 | 0.00 | 0.00 | 0.00 | 66 | 1009.4 |
| 20260505073602 | 64 | 35 | 2.0 | 4.0 | 0.00 | 0.00 | 0.00 | 67 | 1009.4 |
| 20260505073006 | 63 | 71 | 1.0 | 4.0 | 0.00 | 0.00 | 0.00 | 68 | 1009.4 |
| 20260505072525 | 63 | 5 | 0.0 | 4.0 | 0.00 | 0.00 | 0.00 | 69 | 1009.4 |
| 20260505072047 | 63 | 5 | 2.0 | 4.0 | 0.00 | 0.00 | 0.00 | 70 | 1009.4 |
| 20260505071602 | 62 | 300 | 0.0 | 4.0 | 0.00 | 0.00 | 0.00 | 70 | 1009.4 |
| 20260505071022 | 62 | 78 | 0.0 | 4.0 | 0.00 | 0.00 | 0.00 | 70 | 1009.4 |
| 20260505070010 | 62 | 58 | 3.0 | 8.0 | 0.00 | 0.00 | 0.00 | 70 | 1009.2 |
| 20260505065526 | 62 | 68 | 2.0 | 6.0 | 0.00 | 0.00 | 0.00 | 71 | 1009.1 |
| 20260505065043 | 62 | 42 | 3.0 | 6.0 | 0.00 | 0.00 | 0.00 | 71 | 1009.2 |
| 20260505064610 | 62 | 52 | 2.0 | 9.0 | 0.00 | 0.00 | 0.00 | 71 | 1009.3 |
| 20260505064019 | 62 | 41 | 3.0 | 10.0 | 0.00 | 0.00 | 0.00 | 71 | 1009.3 |
| 20260505063538 | 61 | 71 | 4.0 | 9.0 | 0.00 | 0.00 | 0.00 | 72 | 1009.3 |
| 20260505063057 | 61 | 80 | 4.0 | 9.0 | 0.00 | 0.00 | 0.00 | 72 | 1009.3 |
| 20260505062524 | 60 | 63 | 3.0 | 8.0 | 0.00 | 0.00 | 0.00 | 73 | 1009.4 |
| 20260505062041 | 60 | 82 | 3.0 | 8.0 | 0.00 | 0.00 | 0.00 | 74 | 1009.4 |
| 20260505061507 | 59 | 51 | 1.0 | 9.0 | 0.00 | 0.00 | 0.00 | 75 | 1009.3 |
| 20260505061031 | 59 | 55 | 4.0 | 9.0 | 0.00 | 0.00 | 0.00 | 75 | 1009.3 |
| 20260505060556 | 59 | 62 | 2.0 | 8.0 | 0.00 | 0.00 | 0.00 | 75 | 1009.4 |
| 20260505060011 | 59 | 76 | 4.0 | 9.0 | 0.00 | 0.00 | 0.00 | 75 | 1009.1 |
| 20260505055538 | 59 | 49 | 4.0 | 9.0 | 0.00 | 0.00 | 0.00 | 75 | 1009.1 |
| 20260505055054 | 59 | 34 | 2.0 | 6.0 | 0.00 | 0.00 | 0.00 | 76 | 1009.1 |
| 20260505054510 | 58 | 360 | 2.0 | 7.0 | 0.00 | 0.00 | 0.00 | 76 | 1009.1 |
| 20260505054030 | 58 | 42 | 3.0 | 9.0 | 0.00 | 0.00 | 0.00 | 76 | 1009.2 |
| 20260505053546 | 58 | 71 | 4.0 | 9.0 | 0.00 | 0.00 | 0.00 | 76 | 1009.1 |
| 20260505053005 | 58 | 34 | 2.0 | 7.0 | 0.00 | 0.00 | 0.00 | 76 | 1009.2 |
| 20260505052534 | 58 | 40 | 2.0 | 7.0 | 0.00 | 0.00 | 0.00 | 76 | 1009.1 |
| 20260505052054 | 57 | 12 | 1.0 | 4.0 | 0.00 | 0.00 | 0.00 | 76 | 1009.1 |
| 20260505051513 | 57 | 39 | 0.0 | 7.0 | 0.00 | 0.00 | 0.00 | 76 | 1009.1 |
| 20260505051029 | 57 | 11 | 2.0 | 9.0 | 0.00 | 0.00 | 0.00 | 76 | 1009.2 |
| 20260505050548 | 57 | 25 | 3.0 | 9.0 | 0.00 | 0.00 | 0.00 | 76 | 1009.1 |
| 20260505041507 | 57 | 67 | 2.0 | 5.0 | 0.00 | 0.00 | 0.00 | 76 | 1009.5 |
| 20260505041027 | 57 | 40 | 2.0 | 5.0 | 0.00 | 0.00 | 0.00 | 75 | 1009.5 |
| 20260505040546 | 57 | 45 | 2.0 | 5.0 | 0.00 | 0.00 | 0.00 | 75 | 1009.6 |
| 20260505040011 | 57 | 79 | 2.0 | 5.0 | 0.00 | 0.00 | 0.00 | 75 | 1009.4 |
| 20260505035530 | 57 | 80 | 3.0 | 6.0 | 0.00 | 0.00 | 0.00 | 75 | 1009.5 |
| 20260505035049 | 58 | 44 | 2.0 | 6.0 | 0.00 | 0.00 | 0.00 | 75 | 1009.5 |
| 20260505034506 | 58 | 61 | 1.0 | 6.0 | 0.00 | 0.00 | 0.00 | 75 | 1009.6 |
| 20260505034034 | 58 | 61 | 3.0 | 6.0 | 0.00 | 0.00 | 0.00 | 75 | 1009.7 |
| 20260505033553 | 58 | 71 | 3.0 | 6.0 | 0.00 | 0.00 | 0.00 | 75 | 1009.7 |
| 20260505033023 | 58 | 72 | 2.0 | 5.0 | 0.00 | 0.00 | 0.00 | 74 | 1009.8 |
| 20260505032536 | 58 | 57 | 2.0 | 5.0 | 0.00 | 0.00 | 0.00 | 74 | 1009.8 |
| 20260505032054 | 58 | 77 | 2.0 | 4.0 | 0.00 | 0.00 | 0.00 | 74 | 1009.8 |
| 20260505031523 | 58 | 74 | 2.0 | 4.0 | 0.00 | 0.00 | 0.00 | 74 | 1009.9 |
| 20260505031039 | 58 | 85 | 2.0 | 8.0 | 0.00 | 0.00 | 0.00 | 74 | 1009.9 |
| 20260505030559 | 59 | 78 | 3.0 | 8.0 | 0.00 | 0.00 | 0.00 | 74 | 1009.9 |
| 20260505030025 | 59 | 66 | 5.0 | 8.0 | 0.00 | 0.00 | 0.00 | 73 | 1010.0 |
| 20260505025543 | 58 | 93 | 3.0 | 6.0 | 0.00 | 0.00 | 0.00 | 74 | 1010.0 |
| 20260505025008 | 58 | 80 | 3.0 | 6.0 | 0.00 | 0.00 | 0.00 | 74 | 1010.1 |
| 20260505024528 | 58 | 82 | 2.0 | 5.0 | 0.00 | 0.00 | 0.00 | 74 | 1010.2 |